CZ-4C DEB, 47534

Orbit data source: Space-Track

CZ-4C DEB, 47534 is space debris in LEO originally from a launch on Fri, 29 Jan 2021 UTC launched from the Jiuquan Satellite Launch Center, China (JSC). Debris objects in space refer to the collection of defunct objects orbiting the Earth. Examples of debris include non-operational satellites, rocket bodies, and fragments generated from explosions, collisions, or faulty payload assembly.

Loading next visibility...
Identifier
47534, 2021-007C
Orbit
LEO
Country
Flag of CNCN / PRC
Related business
Manufacturer
Unknown
Mission
Spacecraft
Bus & Motor
Unknown
Mass
Unknown
Launch date (UTC)
2021-01-29 (5 years ago)
Launch vehicle
Unknown
Launch site
Jiuquan Satellite Launch Center, China (JSC)
Object type
Payload
Rocket body
Debris
Shape & HBR
Unknown shape, 3.2 m
Radar Cross Section
Large (>1 m²)

Expand to show TLE details & history
Last TLE update: 2 days ago

TLE from 2 days ago
0 CZ-4C DEB
1 47534U 21007C   26171.28171538  .00000001  00000-0  14107-3 0  9992
2 47534  63.4028 142.7607 0176380   2.0711 358.1007 13.44633337264420
Epoch: 2026-06-20T06:45Z
TLE epoch observation values (Epoch: 2026-06-20T06:45:40.208Z)
Latitude
0.00001°
Longitude
132.84459°
Altitude
962.138 km
Speed
7.436 km/s
True Right ascension
09h 31m 02s
True Declination
0° 00' 00"
Sunlit
Object was in daylight at epoch
Visualization orbit readout
Latitude
Unknown
Longitude
Unknown
Altitude
Unknown
Speed
Unknown
Apparent Right ascension
Unknown
Apparent Declination
Unknown
Sunlit
N/A
Visualization observer readout
Local Sidereal Time
21:26:11
Azimuth
Unknown
Elevation
Unknown
Doppler factor
Unknown
Orbital elements
Apogee altitude
1,222.637 km
Perigee altitude
959.159 km
Semi-major axis
7,469.035 km
Eccentricity
0.01764
Inclination
63.4028°
RAAN
142.7607°
Arg. of periapsis
2.0711°
True anomaly
358.0322°
Mean anomaly
358.1007°
Eccentric anomaly
358.06661°
Mean motion
3.36238 °/min
Orbital period
107.07 mins
BSTAR
0.00014107
Loading maneuver chart data...
Computing Atmospheric mass density...
Loading historical data...
Loading historical data...
Loading historical data...
Loading historical data...
Loading historical data...
Loading historical data...
Loading historical data...
Other satellites on launch #7 in the year 2021 (2021-01-29 UTC)

Documentation

Showing up to 5 results
|